Location: Mococo
(38.0255°N, 122.1161°W)
Time: 12:08:59
(UTC+00:00)

Cosmos 2297 Rocket - Pass Details

Date: 13 February 2026
Orbit: 838 x 842 km, 71.0° (Epoch: 17 March)

Event Time Altitude Azimuth Distance (km) Brightness Sun altitude
Exits shadow 13:24:07 23° 226° (SW) 1,700 3.4 -19.6°
Drops below altitude 10° 13:26:57 10° 200° (SSW) 2,447 4.4 -19.0°
Sets 13:29:41 0° 189° (S) 3,377 5.3 -18.5°
